| time (UTC) | temp F | wind direction | speed knots | gust knots | rain 1hr in | rain 24hr in | rain mn in | humidity % | barometer mb |
| 20260505053543 | 47 | 309 | 1.7 | 4.3 | 0.00 | 0.00 | 0.00 | 92 | 1015.3 |
| 20260505053053 | 47 | 315 | 1.7 | 5.2 | 0.00 | 0.00 | 0.00 | 92 | 1015.3 |
| 20260505052543 | 47 | 317 | 2.6 | 5.2 | 0.00 | 0.00 | 0.00 | 92 | 1015.3 |
| 20260505052043 | 47 | 313 | 1.7 | 7.0 | 0.00 | 0.00 | 0.00 | 92 | 1015.3 |
| 20260505051609 | 47 | 321 | 3.5 | 7.0 | 0.00 | 0.00 | 0.00 | 92 | 1015.4 |
| 20260505051043 | 47 | 312 | 3.5 | 7.0 | 0.00 | 0.00 | 0.00 | 92 | 1015.4 |
| 20260505050543 | 47 | 313 | 2.6 | 6.1 | 0.00 | 0.00 | 0.00 | 93 | 1015.4 |
| 20260505041551 | 47 | 311 | 2.6 | 7.0 | 0.00 | 0.00 | 0.00 | 92 | 1015.1 |
| 20260505041043 | 47 | 311 | 3.5 | 7.0 | 0.00 | 0.00 | 0.00 | 92 | 1015.1 |
| 20260505040542 | 47 | 320 | 4.3 | 7.8 | 0.00 | 0.00 | 0.00 | 91 | 1015.0 |
| 20260505040049 | 47 | 309 | 4.3 | 7.8 | 0.00 | 0.00 | 0.00 | 91 | 1015.0 |
| 20260505035540 | 47 | 318 | 5.2 | 7.8 | 0.00 | 0.00 | 0.00 | 91 | 1014.9 |
| 20260505035043 | 48 | 311 | 3.5 | 7.0 | 0.00 | 0.00 | 0.00 | 91 | 1014.8 |
| 20260505034548 | 48 | 314 | 3.5 | 7.0 | 0.00 | 0.00 | 0.00 | 90 | 1014.7 |
| 20260505034044 | 48 | 321 | 2.6 | 5.2 | 0.00 | 0.00 | 0.00 | 90 | 1014.5 |
| 20260505033544 | 48 | 311 | 2.6 | 6.1 | 0.00 | 0.00 | 0.00 | 89 | 1014.6 |
| 20260505033046 | 48 | 327 | 2.6 | 6.1 | 0.00 | 0.00 | 0.00 | 89 | 1014.6 |
| 20260505032543 | 48 | 313 | 2.6 | 6.1 | 0.00 | 0.00 | 0.00 | 88 | 1014.6 |
| 20260505032046 | 48 | 320 | 2.6 | 4.3 | 0.00 | 0.00 | 0.00 | 88 | 1014.5 |
| 20260505031555 | 48 | 309 | 2.6 | 6.1 | 0.00 | 0.00 | 0.00 | 88 | 1014.5 |
| 20260505031044 | 48 | 307 | 2.6 | 6.1 | 0.00 | 0.00 | 0.00 | 88 | 1014.6 |
| 20260505030545 | 48 | 315 | 1.7 | 4.3 | 0.00 | 0.00 | 0.00 | 88 | 1014.6 |
| 20260505030048 | 49 | 315 | 2.6 | 5.2 | 0.00 | 0.00 | 0.00 | 88 | 1014.6 |
| 20260505025545 | 49 | 322 | 2.6 | 5.2 | 0.00 | 0.00 | 0.00 | 88 | 1014.6 |
| 20260505025045 | 49 | 317 | 1.7 | 4.3 | 0.00 | 0.00 | 0.00 | 87 | 1014.5 |
| 20260505024553 | 49 | 319 | 2.6 | 6.1 | 0.00 | 0.00 | 0.00 | 86 | 1014.4 |
| 20260505024045 | 49 | 298 | 2.6 | 7.0 | 0.00 | 0.00 | 0.00 | 87 | 1014.4 |
| 20260505023544 | 49 | 311 | 2.6 | 7.8 | 0.00 | 0.00 | 0.00 | 86 | 1014.6 |
| 20260505023051 | 49 | 303 | 3.5 | 8.7 | 0.00 | 0.00 | 0.00 | 86 | 1014.5 |
| 20260505022543 | 49 | 294 | 4.3 | 8.7 | 0.00 | 0.00 | 0.00 | 85 | 1014.5 |
| 20260505022043 | 49 | 313 | 3.5 | 8.7 | 0.00 | 0.00 | 0.00 | 85 | 1014.6 |
| 20260505021552 | 50 | 309 | 5.2 | 8.7 | 0.00 | 0.00 | 0.00 | 85 | 1014.4 |
| 20260505021044 | 50 | 289 | 4.3 | 8.7 | 0.00 | 0.00 | 0.00 | 85 | 1014.3 |
| 20260505020544 | 50 | 307 | 4.3 | 7.8 | 0.00 | 0.00 | 0.00 | 84 | 1014.4 |
| 20260505020059 | 50 | 319 | 4.3 | 8.7 | 0.00 | 0.00 | 0.00 | 84 | 1014.5 |
| 20260505015543 | 50 | 312 | 4.3 | 8.7 | 0.00 | 0.00 | 0.00 | 84 | 1014.6 |
| 20260505015047 | 51 | 310 | 4.3 | 8.7 | 0.00 | 0.00 | 0.00 | 84 | 1014.5 |
| 20260505014552 | 51 | 305 | 3.5 | 7.0 | 0.00 | 0.00 | 0.00 | 84 | 1014.5 |
| 20260505014043 | 51 | 321 | 3.5 | 7.0 | 0.00 | 0.00 | 0.00 | 84 | 1014.6 |
| 20260505013543 | 52 | 300 | 1.7 | 7.0 | 0.00 | 0.00 | 0.00 | 83 | 1014.6 |
| 20260505013103 | 52 | 326 | 3.5 | 6.1 | 0.00 | 0.00 | 0.00 | 83 | 1014.6 |
| 20260505012543 | 52 | 292 | 2.6 | 4.3 | 0.00 | 0.00 | 0.00 | 82 | 1014.7 |
| 20260505012044 | 52 | 303 | 2.6 | 4.3 | 0.00 | 0.00 | 0.00 | 82 | 1014.7 |
| 20260505011545 | 52 | 304 | 2.6 | 4.3 | 0.00 | 0.00 | 0.00 | 81 | 1014.9 |
| 20260505011044 | 53 | 312 | 2.6 | 4.3 | 0.00 | 0.00 | 0.00 | 81 | 1014.7 |
| 20260505010543 | 53 | 305 | 1.7 | 4.3 | 0.00 | 0.00 | 0.00 | 81 | 1014.7 |
| 20260505010110 | 53 | 298 | 0.9 | 4.3 | 0.00 | 0.00 | 0.00 | 82 | 1014.8 |
| 20260505005543 | 53 | 309 | 1.7 | 6.1 | 0.00 | 0.00 | 0.00 | 82 | 1014.9 |
| 20260505005043 | 52 | 328 | 1.7 | 6.1 | 0.00 | 0.00 | 0.00 | 81 | 1015.0 |
| 20260505004548 | 52 | 312 | 0.9 | 4.3 | 0.00 | 0.00 | 0.00 | 82 | 1015.1 |
| 20260505004042 | 52 | 313 | 1.7 | 7.0 | 0.00 | 0.00 | 0.00 | 82 | 1015.0 |
| 20260505003545 | 52 | 306 | 1.7 | 7.0 | 0.00 | 0.00 | 0.00 | 82 | 1015.0 |
| 20260505003054 | 52 | 313 | 3.5 | 7.0 | 0.00 | 0.00 | 0.00 | 83 | 1015.0 |
| 20260505002543 | 52 | 292 | 2.6 | 7.0 | 0.00 | 0.00 | 0.00 | 83 | 1015.1 |
| 20260505002043 | 52 | 310 | 2.6 | 7.0 | 0.00 | 0.00 | 0.00 | 83 | 1015.1 |
| 20260505001553 | 52 | 318 | 2.6 | 6.1 | 0.00 | 0.00 | 0.00 | 83 | 1015.1 |
| 20260505001046 | 51 | 327 | 1.7 | 6.1 | 0.00 | 0.00 | 0.00 | 84 | 1015.0 |
| 20260505000543 | 51 | 309 | 1.7 | 6.1 | 0.00 | 0.00 | 0.00 | 84 | 1015.0 |
| 20260505000047 | 51 | 317 | 2.6 | 6.1 | 0.00 | 0.00 | 0.00 | 85 | 1015.0 |
| 20260504235543 | 51 | 304 | 2.6 | 6.1 | 0.00 | 0.00 | 0.00 | 85 | 1015.0 |
| 20260504235043 | 51 | 336 | 1.7 | 7.0 | 0.00 | 0.00 | 0.00 | 86 | 1015.0 |
| 20260504234548 | 51 | 309 | 2.6 | 7.0 | 0.00 | 0.00 | 0.00 | 86 | 1015.0 |
| 20260504234045 | 50 | 314 | 2.6 | 6.1 | 0.00 | 0.00 | 0.00 | 86 | 1015.0 |
| 20260504233543 | 50 | 306 | 2.6 | 6.1 | 0.00 | 0.00 | 0.00 | 86 | 1015.2 |
| 20260504233107 | 50 | 313 | 1.7 | 3.5 | 0.00 | 0.00 | 0.00 | 87 | 1015.1 |
| 20260504232545 | 49 | 309 | 0.9 | 4.3 | 0.00 | 0.00 | 0.00 | 88 | 1015.1 |
| 20260504232043 | 49 | 315 | 1.7 | 5.2 | 0.00 | 0.00 | 0.00 | 88 | 1015.1 |
| 20260504231552 | 49 | 308 | 2.6 | 7.8 | 0.00 | 0.00 | 0.00 | 88 | 1015.0 |
| 20260504231043 | 49 | 312 | 3.5 | 7.8 | 0.00 | 0.00 | 0.00 | 87 | 1015.2 |
| 20260504230544 | 50 | 306 | 4.3 | 7.8 | 0.00 | 0.00 | 0.00 | 87 | 1015.3 |
| 20260504230054 | 50 | 308 | 4.3 | 7.8 | 0.00 | 0.00 | 0.00 | 87 | 1015.2 |
| 20260504225545 | 50 | 323 | 4.3 | 7.8 | 0.00 | 0.00 | 0.00 | 86 | 1015.2 |
| 20260504225043 | 51 | 319 | 5.2 | 7.8 | 0.00 | 0.00 | 0.00 | 85 | 1015.2 |
| 20260504224558 | 52 | 286 | 4.3 | 7.8 | 0.00 | 0.00 | 0.00 | 85 | 1015.1 |
| 20260504224044 | 52 | 302 | 3.5 | 7.8 | 0.00 | 0.00 | 0.00 | 83 | 1015.1 |
| 20260504223544 | 53 | 292 | 4.3 | 7.8 | 0.00 | 0.00 | 0.00 | 82 | 1015.2 |
| 20260504223055 | 53 | 296 | 2.6 | 6.1 | 0.00 | 0.00 | 0.00 | 83 | 1015.2 |
| 20260504222544 | 53 | 304 | 2.6 | 6.1 | 0.00 | 0.00 | 0.00 | 83 | 1015.2 |
| 20260504222047 | 53 | 287 | 2.6 | 6.1 | 0.00 | 0.00 | 0.00 | 82 | 1015.2 |
| 20260504221552 | 52 | 313 | 1.7 | 6.1 | 0.00 | 0.00 | 0.00 | 84 | 1015.2 |
| 20260504221044 | 52 | 300 | 2.6 | 6.1 | 0.00 | 0.00 | 0.00 | 83 | 1015.2 |
| 20260504220545 | 52 | 290 | 2.6 | 6.1 | 0.00 | 0.00 | 0.00 | 82 | 1015.3 |
| 20260504220054 | 52 | 286 | 1.7 | 4.3 | 0.00 | 0.00 | 0.00 | 84 | 1015.4 |
| 20260504215547 | 51 | 321 | 1.7 | 4.3 | 0.00 | 0.00 | 0.00 | 86 | 1015.5 |
| 20260504215043 | 51 | 316 | 1.7 | 4.3 | 0.00 | 0.00 | 0.00 | 88 | 1015.5 |
| 20260504214556 | 51 | 303 | 2.6 | 6.1 | 0.00 | 0.00 | 0.00 | 88 | 1015.5 |
| 20260504214049 | 50 | 318 | 1.7 | 6.1 | 0.00 | 0.00 | 0.00 | 88 | 1015.6 |
| 20260504213545 | 50 | 304 | 1.7 | 4.3 | 0.00 | 0.00 | 0.00 | 88 | 1015.6 |
| 20260504213052 | 50 | 304 | 1.7 | 4.3 | 0.00 | 0.00 | 0.00 | 88 | 1015.6 |
| 20260504212544 | 50 | 310 | 1.7 | 5.2 | 0.00 | 0.00 | 0.00 | 88 | 1015.5 |
| 20260504212048 | 50 | 303 | 1.7 | 5.2 | 0.00 | 0.00 | 0.00 | 88 | 1015.6 |
| 20260504211550 | 50 | 317 | 2.6 | 6.1 | 0.00 | 0.00 | 0.00 | 87 | 1015.7 |
| 20260504211046 | 50 | 297 | 2.6 | 7.0 | 0.00 | 0.00 | 0.00 | 87 | 1015.7 |
| 20260504210549 | 50 | 311 | 2.6 | 7.8 | 0.00 | 0.00 | 0.00 | 87 | 1015.7 |
| 20260504210105 | 50 | 301 | 4.3 | 7.8 | 0.00 | 0.00 | 0.00 | 87 | 1015.7 |
| 20260504205547 | 50 | 318 | 2.6 | 7.0 | 0.00 | 0.00 | 0.00 | 87 | 1015.7 |
| 20260504205046 | 50 | 298 | 2.6 | 7.0 | 0.00 | 0.00 | 0.00 | 86 | 1015.6 |
| 20260504204557 | 50 | 318 | 3.5 | 7.0 | 0.00 | 0.00 | 0.00 | 85 | 1015.6 |
| 20260504204040 | 50 | 323 | 0.9 | 7.0 | 0.00 | 0.00 | 0.00 | 85 | 1015.6 |
| 20260504203544 | 50 | 306 | 2.6 | 7.0 | 0.00 | 0.00 | 0.00 | 85 | 1015.6 |
| 20260504203105 | 50 | 298 | 3.5 | 7.0 | 0.00 | 0.00 | 0.00 | 85 | 1015.5 |
| 20260504202545 | 51 | 304 | 2.6 | 7.0 | 0.00 | 0.00 | 0.00 | 85 | 1015.6 |
| 20260504202045 | 51 | 305 | 3.5 | 6.1 | 0.00 | 0.00 | 0.00 | 85 | 1015.6 |
| 20260504201549 | 51 | 316 | 1.7 | 6.1 | 0.00 | 0.00 | 0.00 | 84 | 1015.6 |
| 20260504201044 | 51 | 313 | 2.6 | 5.2 | 0.00 | 0.00 | 0.00 | 84 | 1015.7 |
| 20260504200544 | 51 | 312 | 1.7 | 6.1 | 0.00 | 0.00 | 0.00 | 83 | 1015.6 |
| 20260504200053 | 51 | 310 | 3.5 | 6.1 | 0.00 | 0.00 | 0.00 | 82 | 1015.6 |
| 20260504195544 | 52 | 325 | 3.5 | 6.1 | 0.00 | 0.00 | 0.00 | 82 | 1015.6 |
| 20260504195044 | 52 | 316 | 0.9 | 6.1 | 0.00 | 0.00 | 0.00 | 81 | 1015.7 |
| 20260504194600 | 52 | 317 | 1.7 | 3.5 | 0.00 | 0.00 | 0.00 | 80 | 1015.6 |
| 20260504194042 | 52 | 323 | 0.0 | 1.7 | 0.00 | 0.00 | 0.00 | 81 | 1015.7 |
| 20260504193544 | 52 | 323 | 0.0 | 2.6 | 0.00 | 0.00 | 0.00 | 81 | 1015.6 |
| 20260504193053 | 52 | 0 | 0.0 | 2.6 | 0.00 | 0.00 | 0.00 | 81 | 1015.5 |
| 20260504192545 | 52 | 0 | 0.0 | 2.6 | 0.00 | 0.00 | 0.00 | 80 | 1015.6 |
| 20260504192043 | 52 | 323 | 0.9 | 2.6 | 0.00 | 0.00 | 0.00 | 82 | 1015.7 |
| 20260504191551 | 52 | 0 | 0.0 | 4.3 | 0.00 | 0.00 | 0.00 | 82 | 1015.6 |
| 20260504191044 | 52 | 0 | 1.7 | 4.3 | 0.00 | 0.00 | 0.00 | 82 | 1015.6 |
| 20260504190544 | 52 | 0 | 0.0 | 4.3 | 0.00 | 0.00 | 0.00 | 83 | 1015.6 |
| 20260504190121 | 51 | 306 | 0.0 | 3.5 | 0.00 | 0.00 | 0.00 | 85 | 1015.5 |
| 20260504185544 | 51 | 306 | 0.9 | 3.5 | 0.00 | 0.00 | 0.00 | 84 | 1015.6 |
| 20260504185045 | 51 | 321 | 1.7 | 2.6 | 0.00 | 0.00 | 0.00 | 85 | 1015.5 |
| 20260504184553 | 51 | 0 | 0.0 | 2.6 | 0.00 | 0.00 | 0.00 | 84 | 1015.6 |
| 20260504184047 | 51 | 0 | 0.9 | 2.6 | 0.00 | 0.00 | 0.00 | 84 | 1015.6 |
| 20260504183545 | 51 | 322 | 1.7 | 4.3 | 0.00 | 0.00 | 0.00 | 83 | 1015.6 |
| 20260504183051 | 51 | 0 | 1.7 | 4.3 | 0.00 | 0.00 | 0.00 | 82 | 1015.5 |
| 20260504182544 | 52 | 0 | 0.9 | 4.3 | 0.00 | 0.00 | 0.00 | 82 | 1015.6 |
| 20260504182045 | 52 | 329 | 1.7 | 4.3 | 0.00 | 0.00 | 0.00 | 82 | 1015.6 |
| 20260504181555 | 52 | 319 | 0.9 | 3.5 | 0.00 | 0.00 | 0.00 | 81 | 1015.4 |
| 20260504181044 | 52 | 0 | 0.9 | 3.5 | 0.00 | 0.00 | 0.00 | 80 | 1015.4 |
| 20260504180546 | 52 | 0 | 1.7 | 3.5 | 0.00 | 0.00 | 0.00 | 80 | 1015.4 |
| 20260504180052 | 52 | 302 | 0.9 | 3.5 | 0.00 | 0.00 | 0.00 | 80 | 1015.4 |
| 20260504175543 | 53 | 302 | 1.7 | 3.5 | 0.00 | 0.00 | 0.00 | 80 | 1015.1 |
| 20260504175044 | 53 | 268 | 0.0 | 3.5 | 0.00 | 0.00 | 0.00 | 80 | 1015.2 |
| 20260504174559 | 53 | 0 | 0.0 | 0.0 | 0.00 | 0.00 | 0.00 | 79 | 1015.1 |
| 20260504174044 | 53 | 0 | 0.0 | 2.6 | 0.00 | 0.00 | 0.00 | 78 | 1015.1 |
| 20260504173543 | 53 | 0 | 0.0 | 2.6 | 0.00 | 0.00 | 0.00 | 79 | 1015.0 |
| 20260504173052 | 53 | 0 | 0.0 | 2.6 | 0.00 | 0.00 | 0.00 | 76 | 1015.0 |
| 20260504172544 | 53 | 0 | 0.0 | 0.0 | 0.00 | 0.00 | 0.00 | 77 | 1015.0 |
| 20260504172045 | 53 | 0 | 0.0 | 0.0 | 0.00 | 0.00 | 0.00 | 78 | 1014.9 |
| 20260504171551 | 52 | 0 | 0.0 | 0.0 | 0.00 | 0.00 | 0.00 | 78 | 1015.0 |
| 20260504171045 | 52 | 0 | 0.0 | 1.7 | 0.00 | 0.00 | 0.00 | 78 | 1014.8 |
| 20260504170544 | 52 | 0 | 0.0 | 1.7 | 0.00 | 0.00 | 0.00 | 77 | 1014.7 |
| 20260504151044 | 48 | 0 | 0.0 | 3.5 | 0.00 | 0.01 | 0.00 | 86 | 1014.8 |
| 20260504150544 | 48 | 306 | 0.9 | 3.5 | 0.00 | 0.01 | 0.00 | 86 | 1014.8 |
| 20260504141044 | 46 | 0 | 0.0 | 0.0 | 0.00 | 0.01 | 0.00 | 92 | 1014.5 |
| 20260504140544 | 46 | 0 | 0.0 | 0.0 | 0.00 | 0.01 | 0.00 | 92 | 1014.5 |
| 20260504130544 | 46 | 0 | 0.0 | 0.0 | 0.00 | 0.01 | 0.00 | 93 | 1014.1 |
| 20260504110544 | 46 | 0 | 0.0 | 0.0 | 0.00 | 0.01 | 0.00 | 93 | 1014.2 |
| 20260504100546 | 46 | 0 | 0.0 | 0.0 | 0.00 | 0.01 | 0.00 | 94 | 1014.1 |
| 20260504100218 | 46 | 0 | 0.0 | 0.0 | 0.00 | 0.01 | 0.00 | 94 | 1014.1 |
| 20260504081549 | 45 | 178 | 0.9 | 1.7 | 0.00 | 0.01 | 0.00 | 93 | 1014.7 |
| 20260504081044 | 45 | 0 | 0.0 | 1.7 | 0.00 | 0.01 | 0.00 | 93 | 1014.7 |
| 20260504080545 | 45 | 0 | 0.0 | 1.7 | 0.00 | 0.01 | 0.00 | 93 | 1014.7 |